Regional Weather Roundup
Issued by NWS

Home | Current Version | Previous Version | Text Only | Print | Product List | Glossary Off
Versions: 1 2 3 4 5 6 7 8 9 10 11 12 13 14 15 16 17 18 19 20 21 22 23 24 25 26 27 28 29 30 31 32 33 34 35 36 37 38 39 40 41 42 43 44 45 46 47 48 49 50

000
ASUS44 KMEG 011710
RWRTN
TENNESSEE HOURLY STATE WEATHER ROUNDUP
NATIONAL WEATHER SERVICE MEMPHIS TN
1200 PM CDT WED OCT 01 2014

TNZ002-004-019-021-049-052-054-088>092-011800-
WEST TENNESSEE

CITY           SKY/WX    TMP DP  RH WIND       PRES   REMARKS
MEMPHIS INTL   MOSUNNY   87  65  47 SW8       29.94F
NWS MEMPHIS      N/A     85 N/A N/A MISG        N/A
JACKSON        SUNNY     84  62  47 S10       29.97S
DYERSBURG      MOSUNNY   84  57  39 S7        29.96S
UNION CITY     PTSUNNY   82  63  51 S10       29.94F
PARIS          SUNNY     84  59  42 S9        29.97F
HUNTINGDON     MOSUNNY   84  60  44 SW6       29.96F
LEXINGTON      SUNNY     84  61  45 VRB6      29.96F
SAVANNAH       SUNNY     84  61  45 S8        29.98S
$$

TNZ008-025-027-028-033-062-065-066-011800-
NORTH MIDDLE TENNESSEE

CITY           SKY/WX    TMP DP  RH WIND       PRES   REMARKS
NASHVILLE      MOSUNNY   85  55  35 S3        29.99F
PORTLAND       MOSUNNY   82  55  39 S6        29.99S
CLARKSVILLE    SUNNY     83  59  44 VRB5      29.97F
LEBANON        PTSUNNY   83  55  37 VRB5      29.98F
SMYRNA         MOSUNNY   84  55  36 CALM      30.00F
MURFREESBORO   SUNNY     85  55  35 S5        29.99F
COOKEVILLE     SUNNY     82  59  44 VRB3      30.02S
LIVINGSTON     MOSUNNY   79  52  38 VRB3      30.03F
GALLATIN       MOSUNNY   82  61  49 CALM      30.01S
CROSSVILLE     MOSUNNY   77  50  38 W7        30.06F
$$

TNZ061-075-076-078-094-096-097-011800-
SOUTH MIDDLE TENNESSEE

CITY           SKY/WX    TMP DP  RH WIND       PRES   REMARKS
LEWISBURG      PTSUNNY   81  62  52 SW3       30.00S
FAYETTEVILLE   SUNNY     81  61  50 S6        30.01F
TULLAHOMA      SUNNY     82  57  42 SW6       30.02F
WINCHESTER     SUNNY     79  61  53 VRB3      30.01F
MCMINNVILLE    SUNNY     81  64  57 W5        30.01F
COLUMBIA       SUNNY     84  64  51 W3        29.98S
SHELBYVILLE    SUNNY     86  63  45 W7        30.00F
$$

TNZ017-018-042-046-047-011800-
NORTHEAST TENNESSEE

CITY           SKY/WX    TMP DP  RH WIND       PRES   REMARKS
TRI CITIES     MOSUNNY   77  54  44 VRB3      30.05F
ELIZABETHTON   SUNNY     77  52  41 S5        30.04F
$$

TNZ012-013-036-069-073-074-011800-
CENTRAL EAST TENNESSEE

CITY           SKY/WX    TMP DP  RH WIND       PRES   REMARKS
KNOXVILLE      PTSUNNY   77  59  53 CALM      30.02
OAK RIDGE      MOSUNNY   76  59  55 VRB3      30.04F
GATLINBURG     SUNNY     81  57  44 CALM      30.02F
MORRISTOWN     SUNNY     79  61  53 VRB3      30.05S
$$

TNZ083-085-099-011800-
SOUTHEAST TENNESSEE

CITY           SKY/WX    TMP DP  RH WIND       PRES   REMARKS
CHATTANOOGA    PTSUNNY   81  61  50 CALM      30.02F
$$

SKY/WX REPORTED AS FAIR MEANS FEW OR NO CLOUDS BELOW
12 THOUSAND FEET.



USA.gov is the U.S. government's official web portal to all federal, state and local government web resources and services.